Location: Hilton Head Island
(32.2163°N, 80.7526°W)
Time: 15:40:02
(UTC-05:00)

Explorer 11/Cluster Stage 4 - Pass Details

Date: 25 February 2026
Orbit: 463 x 1176 km, 28.8° (Epoch: 6 March)

Event Time Altitude Azimuth Distance (km) Brightness Sun altitude
Rises 13:50:39 0° 271° (W) 3,152 9.9 45.2°
Reaches altitude 10° 13:53:28 10° 263° (W) 2,099 9.3 44.9°
Maximum altitude 13:57:50 34° 198° (SSW) 970 9.2 44.5°
Drops below altitude 10° 14:01:32 10° 132° (SE) 1,769 8.6 44.1°
Sets 14:03:44 0° 122° (ESE) 2,586 9.3 43.9°
